METEOR 2-7 DEB, 28602

Orbit data source: Space-Track

METEOR 2-7 DEB, 28602 is space debris in LEO originally from a launch on Thu, 14 May 1981 UTC launched from the Plesetsk Missile And Space Complex (PKMTR). Debris objects in space refer to the collection of defunct objects orbiting the Earth. Examples of debris include non-operational satellites, rocket bodies, and fragments generated from explosions, collisions, or faulty payload assembly.

Not visible in the next 10 days
Identifier
28602, 1981-043L
Orbit
LEO
Country
Flag of CISCIS
Related business
Manufacturer
Unknown
Mission
Spacecraft
Bus & Motor
Unknown
Mass
Unknown
Launch date (UTC)
1981-05-14 (44 years ago)
Launch vehicle
Unknown
Launch site
Plesetsk Missile And Space Complex (PKMTR)
Object type
Payload
Rocket body
Debris
Shape & HBR
Unknown
Radar Cross Section
Small (<0.1 m²)

Expand to show TLE details & history
Last TLE update: 10 months ago

TLE from 10 months ago
0 METEOR 2-7 DEB
1 28602U 81043L   24315.08018878  .00122224  00000-0  19029-1 0  9994
2 28602  81.2464  85.4260 0022955  40.0343 320.2549 14.72085623 67597
Epoch: 2024-11-10T01:55Z
TLE epoch observation values (Epoch: 2024-11-10T01:55:28.31Z)
Latitude
0.00002°
Longitude
6.8331°
Altitude
645.002 km
Speed
7.542 km/s
True Right ascension
05h 41m 42s
True Declination
0° 00' 00"
Sunlit
Object was in full shadow at epoch
Visualization orbit readout
Latitude
Unknown
Longitude
Unknown
Altitude
Unknown
Speed
Unknown
Apparent Right ascension
Unknown
Apparent Declination
Unknown
Sunlit
N/A
Visualization observer readout
Local Sidereal Time
00:38:36
Azimuth
Unknown
Elevation
Unknown
Doppler factor
Unknown
Orbital elements
Apogee altitude
667.646 km
Perigee altitude
635.373 km
Semi-major axis
7,029.646 km
Eccentricity
0.0023
Inclination
81.2464°
RAAN
85.426°
Arg. of periapsis
40.0343°
True anomaly
320.08634°
Mean anomaly
320.2549°
Eccentric anomaly
320.17066°
Mean motion
3.6825 °/min
Orbital period
97.76 mins
BSTAR
0.019029
Loading maneuver chart data...
Computing Atmospheric mass density...
Loading historical data...
Loading historical data...
Loading historical data...
Loading historical data...
Loading historical data...
Loading historical data...
Loading historical data...

Documentation

Showing up to 5 results
|